CST,Max TemperatureF,Mean TemperatureF,Min TemperatureF,Max Dew PointF,MeanDew PointF,Min DewpointF,Max Humidity, Mean Humidity, Min Humidity, Max Sea Level PressureIn, Mean Sea Level PressureIn, Min Sea Level PressureIn, Max VisibilityMiles, Mean VisibilityMiles, Min VisibilityMiles, Max Wind SpeedMPH, Mean Wind SpeedMPH, Max Gust SpeedMPH,PrecipitationIn, CloudCover, Events, WindDirDegrees
2012-12-1,62,48,34,45,38,32,100,76,51,29.93,29.85,29.79,10,6,0,14,8,15,0.00,3,Fog,212
2012-12-2,70,50,30,40,34,27,92,59,26,30.04,29.88,29.67,10,10,10,18,9,22,0.00,0,,187
2012-12-3,60,45,30,41,30,18,100,64,28,30.15,29.81,29.59,10,6,0,35,12,43,0.00,0,Fog,292
2012-12-4,61,44,26,23,19,16,68,43,17,30.33,30.27,30.16,10,10,10,13,7,15,0.00,0,,242
2012-12-5,61,48,35,22,20,18,52,36,20,30.25,30.02,29.84,10,10,10,32,17,41,0.00,0,,182
2012-12-6,51,44,37,31,22,16,59,43,26,30.04,29.95,29.82,10,10,10,25,13,33,T,4,,360
2012-12-7,46,34,22,33,25,18,92,71,49,30.04,29.97,29.89,10,10,9,16,6,21,T,3,Rain,304
2012-12-8,36,28,19,33,25,17,100,88,75,30.04,29.94,29.82,10,4,0,18,8,23,0.00,6,Fog,168
2012-12-9,38,23,8,32,10,1,89,68,47,30.31,30.11,29.88,10,10,10,33,22,41,0.00,4,,316
2012-12-10,36,19,1,8,3,-3,87,58,29,30.27,30.07,29.92,10,10,10,22,9,28,0.00,1,,257
2012-12-11,45,33,20,20,15,11,84,56,27,30.08,30.01,29.93,10,10,10,20,13,28,0.00,1,,238
2012-12-12,53,41,29,16,14,13,53,37,21,29.95,29.92,29.86,10,10,10,29,17,37,0.00,0,,195
2012-12-13,54,37,20,25,19,15,75,52,29,30.09,30.03,29.92,10,10,10,20,6,25,0.00,0,,206
2012-12-14,53,34,15,45,30,12,93,71,48,30.03,29.78,29.50,10,10,5,21,8,25,0.13,4,Rain,138
2012-12-15,43,37,31,43,37,27,100,88,75,29.79,29.58,29.43,10,6,1,23,9,28,0.36,7,Rain,340
2012-12-16,38,32,26,27,25,23,92,73,54,29.84,29.79,29.73,10,9,1,13,6,14,0.03,6,Snow,352
2012-12-17,45,35,24,28,26,21,92,71,49,29.78,29.69,29.52,10,10,10,16,8,20,0.00,1,,219
2012-12-18,52,41,29,29,26,21,85,60,35,29.85,29.71,29.50,10,10,10,24,9,29,0.00,0,,291
2012-12-19,35,29,23,33,28,21,100,89,78,29.98,29.84,29.73,10,4,0,38,19,47,0.71,7,Fog-Snow,24
2012-12-20,30,22,13,21,14,9,96,77,58,30.31,30.16,29.90,10,8,2,6,17,6,T,2,Snow,309
2012-12-21,27,16,5,19,12,4,91,80,68,30.35,30.28,30.19,10,10,9,14,6,16,0.00,0,,204
2012-12-22,39,25,10,26,18,11,100,80,59,30.15,30.06,29.98,10,10,7,13,7,14,0.00,0,,282
2012-12-23,21,13,5,14,9,2,92,80,67,30.16,30.09,29.97,10,9,7,20,6,24,0.00,0,,333
2012-12-24,16,11,6,9,6,2,88,79,70,30.32,30.21,30.13,10,10,10,17,11,20,0.00,3,,5
2012-12-25,14,8,2,8,3,-1,86,77,67,30.55,30.47,30.32,10,10,10,13,12,15,0.00,6,,2
2012-12-26,17,8,-2,9,2,-5,95,81,67,30.44,30.29,30.12,10,10,10,10,4,13,0.00,1,,108
2012-12-27,21,17,12,18,15,8,92,84,76,30.14,29.99,29.90,10,4,0,16,8,22,0.10,8,Fog-Snow,110
2012-12-28,19,11,2,16,9,0,92,83,73,30.22,30.12,29.99,10,8,4,8,9,9,T,6,Snow,306
2012-12-29,30,15,0,20,9,-3,91,77,63,30.32,30.27,30.10,10,10,9,13,9,13,0.00,0,,253
2012-12-30,33,23,13,23,18,9,81,74,66,30.26,30.11,30.01,10,10,10,14,12,16,0.00,0,,225
2012-12-31,22,19,15,18,16,12,91,84,77,30.31,30.21,30.12,10,9,5,15,9,17,T,7,,16